Location: Igon
(43.1667°N, 0.2333°W)
Time: 09:44:08
(UTC+00:00)

Cosmos 2184 Rocket - Pass Details

Date: 29 November 2020
Orbit: 958 x 1003 km, 82.9° (Epoch: 23 January)

Event Time Altitude Azimuth Distance (km) Brightness Sun altitude
Rises 05:44:33 0° 197° (SSW) 3,678 7.0 -15.4°
Reaches altitude 10° 05:47:05 10° 200° (SSW) 2,740 6.3 -15.0°
Maximum altitude 05:53:18 61° 281° (W) 1,118 4.0 -13.9°
Drops below altitude 10° 05:59:38 10° 1° (N) 2,781 6.2 -12.8°
Sets 06:02:13 0° 5° (N) 3,737 6.9 -12.3°
